Location: Chmeln�
(49.6483°N, 14.9871°E)
Time: 08:06:51
(UTC+00:00)

ATLAS 3B R/B - Pass Details

Date: 18 September 2020
Orbit: 1016 x 1179 km, 63.8° (Epoch: 04 October)

Event Time Altitude Azimuth Distance (km) Brightness Sun altitude
Rises 21:22:21 0° 316° (NW) 3,837 6.6 -35.3°
Reaches altitude 10° 21:25:01 10° 311° (NW) 2,900 5.7 -35.5°
Enters shadow 21:30:03 43° 275° (W) 1,495 3.5 -35.8°
